AirNav   ATP
 
 413 users online  

1J6 Bob Lee Flight Strip
DeLand, Florida, USA

GOING TO DELAND?


FAA INFORMATION EFFECTIVE 06 DECEMBER 2018

Location

FAA Identifier: 1J6
Lat/Long: 29-06-14.8000N / 081-18-51.1000W
29-06.246667N / 081-18.851667W
29.1041111 / -81.3141944
(estimated)
Elevation: 94 ft. / 28.7 m (surveyed)
Variation: 03W (1985)
From city: 4 miles N of DELAND, FL
Time zone: UTC -5 (UTC -4 during Daylight Saving Time)
Zip code: 32724

Airport Operations

Airport use: Open to the public
Activation date: 03/1966
Control tower: no
ARTCC: JACKSONVILLE CENTER
FSS: SAINT PETERSBURG FLIGHT SERVICE STATION
NOTAMs facility: PIE (NOTAM-D service available)
Attendance: UNATNDD
CARETAKER ON PREMISSES ALL HOURS ALL DAYS.
Wind indicator: yes
Segmented circle: yes

Airport Communications

CTAF/UNICOM: 122.8
WX AWOS-3 at DED (2.7 nm SE): 119.575 (386-740-5811)
WX ASOS at DAB (14 nm E): PHONE 386-253-7469
WX AWOS-3 at OMN (16 nm NE): 118.475 (386-615-7084)
WX AWOS-3 at EVB (19 nm E): 124.625 (386-409-4705)

Nearby radio navigation aids

VOR radial/distance  VOR name  Freq  Var
OMNr221/15.9ORMOND BEACH VORTAC112.6000E
ORLr002/33.7ORLANDO VORTAC112.2000E

 
NDB name  Hdg/Dist  Freq  Var  ID
LEESBURG060/31.133504WLEE .-.. . .

Airport Services

Airframe service: NONE
Powerplant service: NONE
Bottled oxygen: NONE
Bulk oxygen: NONE

Runway Information

Runway 9/27

Dimensions: 3300 x 72 ft. / 1006 x 22 m
Surface: turf, in fair condition
ROUGH, SOFT, SANDY BARE SPOTS.
Runway edge markings: 09/27 MARKED WITH ORANGE CONES EVERY 200 FT. DSPLCD THRS MARKED WITH 3 ORANGE CONES.
RUNWAY 9  RUNWAY 27
Latitude: 29-06.247833N29-06.246000N
Longitude: 081-19.161667W081-18.541500W
Traffic pattern: leftright
Displaced threshold: 300 ft.800 ft.
Obstructions: 10 ft. road, 10 ft. from runway, 1:1 slope to clear
APCH RATIO 20:1 TO DSPLCD THLD.
16 ft. tree, 16 ft. from runway, 95 ft. left of centerline, 1:1 slope to clear
RWY 27 APCH RATIO 20:1 TO DSPLCD THLD DUE TO 37 FT TREES; 0 BOTH SIDES OF CNTRLN; 116 FT FROM END OF RY.

Airport Ownership and Management from official FAA records

Ownership: Privately-owned
Owner: K1J6, LLC
770 AIRPORT ROAD, SUITE 7
ORMOND BEACH, FL 32174
Phone 386-673-2899
CONTACT PERSON: ADRIAN THOMPSON 386-673-2899
Manager: CHRISTOPHER BAILEY
1580 OLD NDB RD., SUITE 7
DELAND, FL 32724
Phone (314) 322-5660
AIRPORT PHYSICAL ADDRESS: 5000 BOB LEE ROAD, DELAND, FL 32724

Airport Operational Statistics

Aircraft based on the field: 16
Single engine airplanes: 12
Gliders airplanes: 4
    
Aircraft operations: avg 115/week *
83% local general aviation
17% transient general aviation
* for 12-month period ending 07 August 2017

Additional Remarks

1740 FT TWR 9.5 NM SOUTH.
RY 09/27 30 FT PLINE 100 FT NORTH OF RY CENTER.
RY 09/27 5 FT FENCE 130 FT NORTH OF RY CENTER.
ULTRALIGHT ACTIVITY ON & INVOF ARPT.
EAST 1000 FT OF RY 09/27 HAS DEBRIS PILED SOUTH OF RY.
+85 FT TREES IN TRANSITION SFC BOTH SIDES OF RY.
FOR CD OR TO CNL IFR CTC DAB APCH AT 386-226-3939.

Instrument Procedures

There are no published instrument procedures at 1J6.

Some nearby airports with instrument procedures:

KDED - DeLand Municipal Airport-Sidney H Taylor Field (3 nm SE)
KDAB - Daytona Beach International Airport (14 nm E)
KOMN - Ormond Beach Municipal Airport (16 nm NE)
KEVB - New Smyrna Beach Municipal Airport (19 nm E)
KSFB - Orlando Sanford International Airport (20 nm S)
 
Loc | Ops | Rwys | IFR | FBO | Links
Com | Nav | Svcs | Stats | Notes


 
Area around 1J6 (Bob Lee Flight Strip)
 
Road maps at: MapQuest Bing Google
 
Aerial photo
WARNING: Photo may not be current or correct
Aerial photo of 1J6 (Bob Lee Flight Strip)
Photo by Paul Everitt
Photo taken 02-Apr-2006
from a Liberty XL2

Do you have a better or more recent aerial photo of Bob Lee Flight Strip that you would like to share? If so, please send us your photo.

 
Sectional chart

 
Airport distance calculator
Flying to Bob Lee Flight Strip? Find the distance to fly.

From to 1J6

Sunrise and sunset
Times for 15-Dec-2018
 Local
(UTC-5)
 Zulu
(UTC)
Morning civil twilight06:4611:46
Sunrise07:1312:13
Sunset17:2822:28
Evening civil twilight17:5422:54

Current date and time
Zulu (UTC)  15-Dec-2018 07:26:51
Local (UTC-5)  15-Dec-2018 02:26:51
 
METAR
KDED 
3nm SE 
150715Z AUTO 00000KT 10SM -RA SCT015 BKN060 OVC095 18/18 A2998 RMK AO2 LTG DSNT S
KDAB 
14nm E 
150653Z 24004KT 5SM TSRA BR SCT005 SCT040CB BKN090 OVC130 18/18 A2999 RMK AO2 LTG DSNT SE SLP156 OCNL LTGIC S TS S MOV NE P0029 T01830183
7FL6 
14nm E 
SuperAWOS
150655Z AUTO 00000KT 5SM BR 19/18 A2999
KOMN 
16nm NE 
142350Z 34010G15KT 5SM RABR SCT005 BKN013 18/18 A3001 RMK LAST
KEVB 
19nm E 
150247Z 07005KT 7SM SCT015 OVC030 18/17 A2003 RMK LAST
TAF
KDAB 
14nm E 
150527Z 1506/1606 VRB05KT 5SM -RA FEW007 SCT015 BKN035 TEMPO 1506/1509 2SM +RA SCT007 BKN015 FM150900 VRB05KT 6SM -SHRA SCT007 BKN015 FM151300 24007KT P6SM VCSH SCT015 BKN025 FM151900 28007KT P6SM SCT025 BKN040
NOTAMs
Click for the latest NOTAMs
NOTAMs are issued by the DoD/FAA and will open in a separate window not controlled by AirNav.

 

 
 

Would you like to see your business listed on this page?

 If your business provides an interesting product or service to pilots, flight crews, aircraft, or users of the Bob Lee Flight Strip, you should consider listing it here.  To start the listing process, click on the button below
 
Add a business
 

Other Pages about Bob Lee Flight Strip

Update a link
 
Copyright © AirNav, LLC. All rights reserved. Privacy Policy  Contact